This is the latest recevied weather packets stored in our database for station/object DO7CRZ-12. If no packets are shown the sender has not sent any weather packets the latest 10 day(s).
| Time | Temp. | Humidity | Pressure | Rain* | Wind** | Luminosity | Snow |
|---|---|---|---|---|---|---|---|
| 1777826247 | 29.44° C | 16% | 1012 hPa | 0 mm | - | 151 W/m² | - |
| 1777825644 | 29.44° C | 16% | 1011.8 hPa | 0 mm | - | 177 W/m² | - |
| 1777825041 | 29.44° C | 16% | 1011.8 hPa | 0 mm | - | 202 W/m² | - |
| 1777824438 | 29.44° C | 16% | 1012 hPa | 0 mm | - | 169 W/m² | - |
| 1777823247 | 31.11° C | 14% | 1012 hPa | 0 mm | - | 190 W/m² | - |
| 1777822644 | 30.56° C | 14% | 1012.2 hPa | 0 mm | - | 191 W/m² | - |
| 1777822042 | 30.56° C | 15% | 1012.3 hPa | 0 mm | - | 215 W/m² | - |
| 1777821439 | 29.44° C | 17% | 1012.3 hPa | 0 mm | - | 239 W/m² | - |
| 1777820836 | 29.44° C | 17% | 1012.4 hPa | 0 mm | - | 259 W/m² | - |
| 1777820248 | 28.89° C | 18% | 1012.6 hPa | 0 mm | - | 286 W/m² | - |
| 1777819646 | 28.33° C | 19% | 1012.7 hPa | 0 mm | - | 299 W/m² | - |
| 1777819043 | 28.89° C | 19% | 1012.8 hPa | 0 mm | - | 305 W/m² | - |
| 1777818439 | 28.89° C | 19% | 1012.9 hPa | 0 mm | - | 303 W/m² | - |
| 1777817837 | 28.89° C | 19% | 1013 hPa | 0 mm | - | 335 W/m² | - |
| 1777817249 | 28.89° C | 20% | 1013.1 hPa | 0 mm | - | 366 W/m² | - |
| 1777816647 | 28.33° C | 19% | 1013.1 hPa | 0 mm | - | 375 W/m² | - |
| 1777816043 | 28.33° C | 18% | 1013.4 hPa | 0 mm | - | 396 W/m² | - |
| 1777815441 | 28.33° C | 18% | 1013.4 hPa | 0 mm | - | 415 W/m² | - |
| 1777814838 | 28.33° C | 19% | 1013.6 hPa | 0 mm | - | 427 W/m² | - |
| 1777813647 | 28.33° C | 19% | 1013.8 hPa | 0 mm | - | 475 W/m² | - |
| 1777813044 | 28.89° C | 18% | 1014 hPa | 0 mm | - | 538 W/m² | - |
| 1777812442 | 28.89° C | 19% | 1014 hPa | 0 mm | - | 565 W/m² | - |
| 1777811839 | 28.89° C | 19% | 1014 hPa | 0 mm | - | 575 W/m² | - |
| 1777811236 | 28.33° C | 19% | 1014.2 hPa | 0 mm | - | 559 W/m² | - |
| 1777810648 | 28.33° C | 19% | 1014.2 hPa | 0 mm | - | 578 W/m² | - |
* Rain latest hour (hover to see other rain measurements)
** Current wind speed in m/s (hover to see current wind gust speed)